Flag for Brazil Weather past 2 weeks in Florianópolis, Santa Catarina, Brazil

Now
63 °F

Light rain. Passing clouds.


Feels Like: 63 °F
Forecast: 62 / 69 °F
Wind: 3 mph from Southwest

Location: Florianopolis Aeroporto

Current Time: Jul 30, 2014 at 2:41:49 AM

Latest Report: Jul 30, 2014 at 2:00 AM


Visibility: N/A

Pressure: 30.36 "Hg

Humidity: 88%

Dew point: 59 °F

Location of FlorianópolisLocation

Historic Weather in Florianópolis — Graph

°F

Florianópolis temperature yesterday

Maximum temperature yesterday: 66 °F (at 3:00 PM)
Minimum temperature yesterday: 54 °F (at 1:00 AM)
Average temperature yesterday: 61 °F

Past Weeks' High & Low Weather Summary

 TemperatureHumidityPressure
High73 °F (Jul 16, 3:00 PM)94% (Jul 15, 3:00 AM)30.51 "Hg (Jul 15, 3:00 AM)
Low50 °F (Jul 19, 5:00 AM)35% (Jul 19, 2:00 PM)29.77 "Hg (Jul 24, 4:00 AM)
Average63 °F76%30.17 "Hg
* Reported Jul 15 1:00 AM — Jul 30 1:00 AM, Florianópolis, Weather by CustomWeather, © 2014

Note: Actual official high and low records may vary slightly from our data, if they occured in-between our weather recording intervals... More about our weather records

Advertising

Florianópolis weather history for previous 24 hours

 ConditionsComfort  
Time TempWeatherWind HumidityBarometerVisibility
1:00 AM
Jul 30
63 °FLight rain. Passing clouds.3 mph94%30.39 "HgN/A
12:00 AM64 °FPassing clouds.5 mph83%30.39 "HgN/A
11:00 PM
Jul 29
64 °FPassing clouds.3 mph83%30.39 "HgN/A
10:00 PM64 °FPassing clouds.3 mph83%30.36 "HgN/A
9:00 PM64 °FPassing clouds.3 mph83%30.36 "HgN/A
8:00 PM64 °FPassing clouds.7 mph83%30.36 "HgN/A
7:00 PM66 °FPassing clouds.6 mph73%30.36 "HgN/A
6:00 PM66 °FPassing clouds.7 mph73%30.36 "HgN/A
5:00 PM66 °FPartly cloudy.8 mph73%30.36 "HgN/A
3:00 PM66 °FBroken clouds.5 mph78%30.36 "HgN/A
2:00 PM64 °FBroken clouds.3 mph88%30.39 "HgN/A
1:00 PM63 °FBroken clouds.3 mph94%30.42 "HgN/A
12:00 PM64 °FPartly sunny.6 mph83%30.42 "HgN/A
11:00 AM64 °FPartly sunny.2 mph83%30.48 "HgN/A
10:00 AM63 °FPartly sunny.3 mph83%30.45 "HgN/A
9:00 AM61 °FPartly sunny.2 mph88%30.45 "HgN/A
8:00 AM59 °FPartly sunny.No wind94%30.42 "HgN/A
7:00 AM59 °FPartly sunny.No wind94%30.42 "Hg5 mi
6:00 AM57 °FScattered clouds.No wind94%30.39 "HgN/A
5:00 AM55 °FPassing clouds.No wind94%30.39 "HgN/A
4:00 AM55 °FClear.No wind94%30.33 "Hg10 mi
3:00 AM54 °FClear.No wind94%30.42 "Hg10 mi
2:00 AM54 °FClear.No wind94%30.42 "Hg10 mi
Weather by CustomWeather, © 2014

See weather overviewHow to use our weather pages